Time,TemperatureF,DewpointF,PressureIn,WindDirection,WindDirectionDegrees,WindSpeedMPH,WindSpeedGustMPH,Humidity,HourlyPrecipIn,Conditions,Clouds,dailyrainin,SolarRadiationWatts/m^2,SoftwareType,DateUTC
2013-03-27 00:02:00,49.0,30.0,-100.00,North,3,0.0,2.0,47,0.00,,,0.00,0.000000,,2013-03-27 07:02:00,
2013-03-27 00:12:00,49.0,30.0,-100.00,North,3,0.0,2.0,47,0.00,,,0.00,0.000000,,2013-03-27 07:12:00,
2013-03-27 00:22:00,49.0,30.0,-100.00,North,3,0.0,2.0,47,0.00,,,0.00,0.000000,,2013-03-27 07:22:00,
2013-03-27 00:53:00,46.0,28.0,-100.00,NNE,13,3.0,3.0,50,0.00,,,0.00,0.000000,,2013-03-27 07:53:00,
2013-03-27 01:02:00,46.0,28.0,-100.00,NNE,13,3.0,3.0,50,0.00,,,0.00,0.000000,,2013-03-27 08:02:00,
2013-03-27 01:12:00,46.0,28.0,-100.00,NNE,13,3.0,3.0,50,0.00,,,0.00,0.000000,,2013-03-27 08:12:00,
2013-03-27 01:22:00,46.0,28.0,-100.00,NNE,13,3.0,3.0,50,0.00,,,0.00,0.000000,,2013-03-27 08:22:00,
2013-03-27 01:52:00,46.0,30.0,-100.00,SW,228,0.0,4.0,53,0.00,,,0.00,0.000000,,2013-03-27 08:52:00,
2013-03-27 02:01:00,46.0,30.0,-100.00,SW,228,0.0,4.0,53,0.00,,,0.00,0.000000,,2013-03-27 09:01:00,
2013-03-27 02:11:00,46.0,30.0,-100.00,SW,228,0.0,4.0,53,0.00,,,0.00,0.000000,,2013-03-27 09:11:00,
2013-03-27 02:22:00,46.0,30.0,-100.00,SW,228,0.0,4.0,53,0.00,,,0.00,0.000000,,2013-03-27 09:22:00,
2013-03-27 02:52:00,43.0,28.0,-100.00,SSE,156,0.0,3.0,56,0.00,,,0.00,0.000000,,2013-03-27 09:52:00,
2013-03-27 03:02:00,43.0,28.0,-100.00,SSE,156,0.0,3.0,56,0.00,,,0.00,0.000000,,2013-03-27 10:02:00,
2013-03-27 03:12:00,43.0,28.0,-100.00,SSE,156,0.0,3.0,56,0.00,,,0.00,0.000000,,2013-03-27 10:12:00,
2013-03-27 03:22:00,43.0,28.0,-100.00,SSE,156,0.0,3.0,56,0.00,,,0.00,0.000000,,2013-03-27 10:22:00,
2013-03-27 03:53:00,45.0,30.0,-100.00,North,0,1.0,4.0,55,0.00,,,0.00,0.000000,,2013-03-27 10:53:00,
2013-03-27 04:02:00,45.0,30.0,-100.00,North,0,1.0,4.0,55,0.00,,,0.00,0.000000,,2013-03-27 11:02:00,
2013-03-27 04:12:00,45.0,30.0,-100.00,North,0,1.0,4.0,55,0.00,,,0.00,0.000000,,2013-03-27 11:12:00,
2013-03-27 04:22:00,45.0,30.0,-100.00,North,0,1.0,4.0,55,0.00,,,0.00,0.000000,,2013-03-27 11:22:00,
2013-03-27 04:52:00,42.0,28.0,-100.00,North,7,4.0,5.0,57,0.00,,,0.00,0.000000,,2013-03-27 11:52:00,
2013-03-27 05:02:00,42.0,28.0,-100.00,North,7,4.0,5.0,57,0.00,,,0.00,0.000000,,2013-03-27 12:02:00,
2013-03-27 05:12:00,42.0,28.0,-100.00,North,7,4.0,5.0,57,0.00,,,0.00,0.000000,,2013-03-27 12:12:00,
2013-03-27 05:22:00,42.0,28.0,-100.00,North,7,4.0,5.0,57,0.00,,,0.00,0.000000,,2013-03-27 12:22:00,
2013-03-27 05:52:00,41.0,27.0,-100.00,North,8,3.0,5.0,58,0.00,,,0.00,0.000000,,2013-03-27 12:52:00,
2013-03-27 06:02:00,41.0,27.0,-100.00,North,8,3.0,5.0,58,0.00,,,0.00,0.000000,,2013-03-27 13:02:00,
2013-03-27 06:12:00,41.0,27.0,-100.00,North,8,3.0,5.0,58,0.00,,,0.00,0.000000,,2013-03-27 13:12:00,
2013-03-27 06:22:00,41.0,27.0,-100.00,North,8,3.0,5.0,58,0.00,,,0.00,0.000000,,2013-03-27 13:22:00,
2013-03-27 06:53:00,41.0,27.0,-100.00,North,4,3.0,6.0,57,0.00,,,0.00,0.000000,,2013-03-27 13:53:00,
2013-03-27 07:02:00,41.0,27.0,-100.00,North,4,3.0,6.0,57,0.00,,,0.00,0.000000,,2013-03-27 14:02:00,
2013-03-27 07:11:00,41.0,27.0,-100.00,North,4,3.0,6.0,57,0.00,,,0.00,0.000000,,2013-03-27 14:11:00,
2013-03-27 07:22:00,41.0,27.0,-100.00,North,4,3.0,6.0,57,0.00,,,0.00,0.000000,,2013-03-27 14:22:00,
2013-03-27 07:52:00,41.0,27.0,-100.00,NNE,31,2.0,7.0,57,0.00,,,0.00,7.000000,,2013-03-27 14:52:00,
2013-03-27 08:02:00,41.0,27.0,-100.00,NNE,31,2.0,7.0,57,0.00,,,0.00,7.000000,,2013-03-27 15:02:00,
2013-03-27 08:11:00,41.0,27.0,-100.00,NNE,31,2.0,7.0,57,0.00,,,0.00,7.000000,,2013-03-27 15:11:00,
2013-03-27 08:22:00,41.0,27.0,-100.00,NNE,31,2.0,7.0,57,0.00,,,0.00,7.000000,,2013-03-27 15:22:00,
2013-03-27 08:52:00,42.0,28.0,-100.00,NNE,12,2.0,5.0,57,0.00,,,0.00,54.000000,,2013-03-27 15:52:00,
2013-03-27 09:02:00,42.0,28.0,-100.00,NNE,12,2.0,5.0,57,0.00,,,0.00,54.000000,,2013-03-27 16:02:00,
2013-03-27 09:12:00,42.0,28.0,-100.00,NNE,12,2.0,5.0,57,0.00,,,0.00,54.000000,,2013-03-27 16:12:00,
2013-03-27 09:22:00,42.0,28.0,-100.00,NNE,12,2.0,5.0,57,0.00,,,0.00,54.000000,,2013-03-27 16:22:00,
2013-03-27 11:02:00,48.0,29.0,-100.00,ENE,57,4.0,7.0,48,-99.99,,,0.00,317.000000,,2013-03-27 18:02:00,
2013-03-27 11:12:00,48.0,29.0,-100.00,ENE,57,4.0,7.0,48,-99.99,,,0.00,317.000000,,2013-03-27 18:12:00,
2013-03-27 11:22:00,48.0,29.0,-100.00,ENE,57,4.0,7.0,48,-99.99,,,0.00,317.000000,,2013-03-27 18:22:00,
2013-03-27 11:53:00,53.0,31.0,-100.00,ENE,78,5.0,8.0,43,0.00,,,0.00,463.000000,,2013-03-27 18:53:00,
2013-03-27 12:02:00,53.0,31.0,-100.00,ENE,78,5.0,8.0,43,0.00,,,0.00,463.000000,,2013-03-27 19:02:00,
2013-03-27 12:12:00,53.0,31.0,-100.00,ENE,78,5.0,8.0,43,0.00,,,0.00,463.000000,,2013-03-27 19:12:00,
2013-03-27 12:21:00,53.0,31.0,-100.00,ENE,78,5.0,8.0,43,0.00,,,0.00,463.000000,,2013-03-27 19:21:00,
2013-03-27 12:52:00,56.0,31.0,-100.00,East,84,5.0,8.0,39,0.00,,,0.00,526.000000,,2013-03-27 19:52:00,
2013-03-27 13:02:00,56.0,31.0,-100.00,East,84,5.0,8.0,39,0.00,,,0.00,526.000000,,2013-03-27 20:02:00,
2013-03-27 13:12:00,56.0,31.0,-100.00,East,84,5.0,8.0,39,0.00,,,0.00,526.000000,,2013-03-27 20:12:00,
2013-03-27 13:22:00,56.0,31.0,-100.00,East,84,5.0,8.0,39,0.00,,,0.00,526.000000,,2013-03-27 20:22:00,
2013-03-27 13:52:00,60.0,30.0,-100.00,East,79,4.0,7.0,32,0.00,,,0.00,554.000000,,2013-03-27 20:52:00,
2013-03-27 14:02:00,60.0,30.0,-100.00,East,79,4.0,7.0,32,0.00,,,0.00,554.000000,,2013-03-27 21:02:00,
2013-03-27 14:12:00,60.0,30.0,-100.00,East,79,4.0,7.0,32,0.00,,,0.00,554.000000,,2013-03-27 21:12:00,
2013-03-27 14:22:00,60.0,30.0,-100.00,East,79,4.0,7.0,32,0.00,,,0.00,554.000000,,2013-03-27 21:22:00,
2013-03-27 14:52:00,60.0,30.0,-100.00,South,174,4.0,6.0,32,0.00,,,0.00,373.000000,,2013-03-27 21:52:00,
2013-03-27 15:02:00,60.0,30.0,-100.00,South,174,4.0,6.0,32,0.00,,,0.00,373.000000,,2013-03-27 22:02:00,
2013-03-27 15:12:00,60.0,30.0,-100.00,South,174,4.0,6.0,32,0.00,,,0.00,373.000000,,2013-03-27 22:12:00,
2013-03-27 15:23:00,60.0,30.0,-100.00,South,174,4.0,6.0,32,0.00,,,0.00,373.000000,,2013-03-27 22:23:00,
2013-03-27 15:52:00,59.0,33.0,-100.00,SW,224,7.0,9.0,37,0.00,,,0.00,346.000000,,2013-03-27 22:52:00,
2013-03-27 16:02:00,59.0,33.0,-100.00,SW,224,7.0,9.0,37,0.00,,,0.00,346.000000,,2013-03-27 23:02:00,
2013-03-27 16:12:00,59.0,33.0,-100.00,SW,224,7.0,9.0,37,0.00,,,0.00,346.000000,,2013-03-27 23:12:00,
2013-03-27 16:22:00,59.0,33.0,-100.00,SW,224,7.0,9.0,37,0.00,,,0.00,346.000000,,2013-03-27 23:22:00,
2013-03-27 16:52:00,57.0,32.0,-100.00,SW,217,8.0,11.0,38,0.00,,,0.00,207.000000,,2013-03-27 23:52:00,
2013-03-27 17:02:00,57.0,32.0,-100.00,SW,217,8.0,11.0,38,0.00,,,0.00,207.000000,,2013-03-28 00:02:00,
2013-03-27 17:12:00,57.0,32.0,-100.00,SW,217,8.0,11.0,38,0.00,,,0.00,207.000000,,2013-03-28 00:12:00,
2013-03-27 17:22:00,57.0,32.0,-100.00,SW,217,8.0,11.0,38,0.00,,,0.00,207.000000,,2013-03-28 00:22:00,